Wind_Speed
20 20 20 20 20 20 20 20 20 20 20 20 20 21 21 21 21 21 22 21 22 21 21 21 22 22 23 23 22 22 22 22 22 22 21 21 21 21 21 21 19 19 19
21 21 21 20 21 21 20 20 20 20 21 21 21 21 22 22 22 22 22 22 22 22 22 22 22 22 23 23 22 22 22 22 21 21 20 19 20 20 19 19 19 19 19
22 21 21 21 21 21 21 21 21 21 22 22 22 22 22 22 22 22 22 22 22 22 22 22 23 23 22 22 22 22 22 22 21 20 20 20 20 20 19 20 20 20 20
23 22 22 22 22 22 22 22 23 23 23 23 23 23 23 22 22 21 22 23 23 22 22 23 23 23 23 22 22 22 22 22 21 21 21 20 20 20 19 20 20 21 20
23 22 22 22 22 22 23 23 23 23 23 24 24 23 23 23 23 22 23 23 24 24 24 24 24 23 23 22 22 22 22 21 21 22 21 20 20 20 20 21 21 20 19
23 22 22 22 22 23 23 23 24 23 23 24 24 24 24 24 24 23 24 24 24 24 24 25 25 25 23 23 23 23 23 22 21 21 21 20 20 20 20 20 20 19 19
23 22 22 22 22 23 23 23 24 24 24 24 24 25 25 25 24 24 24 25 26 26 25 25 24 25 24 24 23 23 22 21 21 21 20 20 21 20 20 20 20 19 18
23 23 22 22 23 23 23 23 24 25 24 24 24 25 25 25 26 26 26 26 27 26 26 25 25 24 24 24 22 21 21 20 21 20 20 21 20 20 20 19 18 19 19
24 23 23 24 24 24 24 25 25 26 26 26 25 26 26 27 27 26 26 26 25 26 26 25 25 24 23 23 22 22 21 21 20 20 21 21 20 20 20 19 19 19 19
24 24 24 24 25 25 25 26 26 27 27 27 27 27 27 27 27 27 26 26 25 25 25 24 24 23 23 23 23 22 22 21 20 20 21 21 21 21 21 20 20 19 20
25 25 26 26 25 26 26 26 27 27 27 27 27 27 27 26 26 26 26 25 24 24 24 23 23 23 23 23 23 23 22 21 20 21 21 21 21 21 21 21 21 21 21
26 26 27 27 27 26 27 27 27 27 27 27 26 26 26 25 25 25 24 25 24 24 24 24 24 25 24 24 24 23 23 22 22 22 22 22 22 21 21 22 22 22 23
26 27 27 27 27 27 28 28 28 28 27 26 26 26 26 26 25 25 25 25 25 25 25 25 25 25 25 25 25 25 25 24 23 23 23 23 23 23 23 23 23 23 23
26 27 27 27 27 27 28 28 27 27 27 26 26 26 26 26 26 27 26 26 26 26 26 26 26 26 26 27 26 26 25 25 25 25 24 24 25 25 25 25 25 24 24
27 27 27 27 27 27 28 27 27 27 27 27 27 27 27 27 27 27 27 27 27 27 27 27 27 27 27 26 26 26 26 26 26 26 26 26 26 25 26 26 26 26 26
26 27 27 27 27 27 27 27 27 27 27 28 28 27 27 28 28 27 27 27 27 27 27 27 27 27 26 26 26 27 27 27 27 27 27 27 27 27 27 27 27 27 27
27 27 27 27 28 28 28 28 27 28 28 28 28 28 28 28 28 28 28 27 27 27 26 26 26 25 25 25 26 26 26 27 26 26 27 27 27 27 27 27 28 27 27
27 27 27 27 27 28 28 28 27 27 27 28 28 28 28 28 28 28 28 28 27 26 26 26 26 25 25 25 25 25 26 26 26 26 27 27 27 27 28 28 29 29 29
27 27 27 27 27 27 27 26 27 27 27 27 28 28 28 28 28 28 28 27 26 26 26 26 25 25 25 25 25 25 25 26 26 26 27 28 28 28 28 29 29 30 30
27 27 27 28 28 27 27 26 27 27 27 28 28 28 27 27 28 27 27 26 25 26 25 25 26 26 26 26 26 26 26 27 27 27 28 28 28 28 28 29 29 30 30
27 28 28 28 28 28 28 28 28 28 28 29 29 28 28 27 27 27 26 26 26 26 26 26 26 27 28 27 27 27 27 28 28 29 29 29 28 28 28 28 29 30 31
27 27 28 28 28 29 29 29 29 29 29 29 29 28 28 28 28 27 27 27 27 27 27 27 27 27 28 28 28 28 28 28 29 29 29 29 30 30 29 29 30 30 31
28 27 28 28 29 29 29 30 30 30 29 29 29 29 28 28 28 28 28 28 28 28 28 28 28 28 28 28 28 28 28 29 29 30 30 30 30 31 30 30 30 31 32
29 29 29 29 30 30 30 30 30 30 29 29 29 29 29 29 29 29 29 29 29 29 29 29 28 28 28 28 29 28 28 29 29 30 30 30 30 30 31 31 31 31 32
30 30 30 31 31 31 31 31 30 31 30 30 30 29 29 29 30 29 30 30 30 29 29 29 29 29 29 29 29 30 30 30 29 30 30 30 30 30 30 31 31 31 31
30 30 31 31 31 31 31 30 31 31 31 30 30 30 30 30 30 30 30 30 30 30 29 29 29 30 30 31 31 30 31 31 31 31 30 30 30 30 30 30 30 30 30
Wind_Direction
281 280 279 280 282 284 286 287 288 289 290 291 293 295 294 295 296 296 293 291 290 290 291 291 291 291 291 291 290 289 290 289 286 285 282 277 277 279 279 278 275 271 267
281 281 279 281 282 282 283 286 287 288 290 292 293 294 294 294 295 295 295 292 290 291 291 292 292 291 290 290 289 290 290 289 287 286 283 278 277 276 276 278 275 271 267
280 279 279 281 281 281 283 286 287 288 289 290 291 291 293 294 295 295 294 294 292 290 289 291 292 291 290 289 288 289 290 288 285 284 282 279 276 274 275 277 276 273 268
279 278 279 281 282 282 282 284 285 287 288 290 291 291 291 292 292 293 294 293 292 290 289 289 291 290 289 289 289 289 289 288 284 283 284 279 276 274 275 278 275 272 269
279 279 278 280 282 283 283 284 285 286 287 288 290 291 290 290 290 293 294 294 293 290 289 289 290 288 289 287 288 289 288 287 287 285 283 279 277 277 277 278 274 270 268
277 276 277 280 283 284 285 285 286 287 287 288 288 289 289 289 288 291 293 293 292 291 290 290 290 289 286 285 286 288 289 290 289 284 279 277 276 277 278 278 275 269 266
275 275 276 278 281 284 286 286 287 287 287 287 287 288 288 286 286 288 291 292 292 292 292 291 290 289 284 286 286 288 290 289 287 283 279 276 276 276 277 277 275 268 265
275 276 277 278 281 283 285 286 287 286 286 287 287 288 288 287 286 287 287 290 291 290 290 289 289 288 287 287 287 288 288 286 284 282 279 276 275 277 277 275 273 271 269
277 276 277 280 281 282 283 285 286 286 287 288 289 289 289 288 287 287 287 290 291 291 290 288 289 290 289 287 285 286 286 284 281 279 278 277 276 275 275 275 274 274 271
277 276 278 281 281 282 284 285 286 286 286 287 289 290 289 288 287 287 288 289 290 291 290 289 289 288 287 285 284 284 284 283 281 279 278 278 278 276 277 277 276 275 273
278 277 280 282 281 282 283 284 285 285 286 287 289 290 290 289 287 287 288 289 290 290 291 291 289 287 286 286 286 283 282 280 277 278 279 278 276 274 274 274 274 274 274
279 279 282 284 284 283 284 285 286 285 286 287 288 289 289 290 289 289 289 289 290 289 289 289 288 286 285 285 285 282 279 278 277 278 278 278 276 274 272 272 273 273 274
280 281 283 284 283 283 284 285 286 286 286 286 288 288 288 288 288 288 289 289 288 289 288 287 286 286 284 284 284 282 278 276 276 277 276 276 276 275 273 272 273 273 272
281 282 283 283 282 283 284 284 285 285 286 287 288 288 288 288 287 288 289 288 287 287 287 286 286 286 284 284 283 281 279 277 276 276 276 276 276 275 275 274 273 273 274
281 282 283 284 284 284 284 284 284 284 285 287 288 288 288 288 288 288 287 287 286 287 287 287 286 285 283 283 281 280 280 279 278 277 276 275 276 276 275 273 273 273 275
281 282 283 283 284 284 284 284 284 284 284 285 286 286 287 287 287 287 287 286 286 288 288 288 286 284 283 282 280 281 280 280 279 278 278 277 277 276 275 274 274 274 275
284 284 283 284 284 283 284 284 283 284 285 286 287 287 288 288 287 286 287 286 285 286 288 289 287 284 283 283 281 282 282 281 279 278 278 278 277 277 276 275 275 275 275
287 286 285 285 285 285 283 283 282 282 283 285 287 288 288 288 288 287 288 286 285 286 287 287 286 284 283 284 284 283 283 282 281 280 279 279 279 278 276 275 275 275 276
287 286 285 284 285 285 284 284 283 283 284 284 286 288 288 288 288 288 287 287 286 286 287 286 285 283 283 284 284 284 283 282 283 283 282 281 281 279 278 277 277 276 277
288 288 287 286 285 285 284 283 283 284 285 285 286 287 288 288 287 288 289 289 287 286 286 285 284 282 282 283 283 282 282 282 284 285 284 283 282 281 280 279 278 278 278
288 289 289 288 286 285 284 284 284 285 285 286 286 286 287 287 287 287 288 289 288 287 285 284 284 282 281 280 281 282 282 283 283 284 284 283 283 282 281 281 281 280 280
290 289 289 289 287 285 285 284 284 285 286 286 286 286 286 286 286 287 288 290 289 288 285 284 284 283 282 281 281 281 282 283 284 284 284 284 284 282 282 282 283 283 282
289 290 290 290 289 288 286 285 285 285 285 286 285 285 285 285 285 286 287 287 288 287 286 285 284 283 282 283 283 283 283 282 283 283 284 285 285 283 282 282 283 284 284
289 289 289 290 290 290 289 287 285 284 284 284 285 284 284 283 284 285 286 286 287 286 285 285 284 282 282 283 284 284 284 284 283 283 284 286 286 285 283 283 284 284 284
289 289 289 289 289 290 289 288 288 285 283 283 282 283 283 282 283 284 285 286 285 286 287 286 284 281 281 283 284 285 284 284 283 283 285 285 285 285 285 284 284 284 284
289 290 290 289 289 289 289 289 289 288 285 283 282 282 283 283 283 284 285 286 286 286 287 287 285 282 281 282 283 283 283 282 282 284 284 284 284 285 285 285 284 284 284
Height
5799 5798 5797 5797 5795 5794 5793 5792 5791 5789 5788 5786 5785 5783 5781 5779 5778 5776 5774 5772 5770 5768 5767 5765 5763 5762 5760 5758 5757 5755 5753 5752 5750 5749 5748 5747 5747 5747 5747 5747 5747 5747 5747
5793 5793 5792 5791 5790 5789 5788 5786 5785 5784 5782 5781 5779 5777 5776 5774 5772 5770 5768 5766 5764 5763 5761 5759 5757 5755 5754 5752 5750 5748 5747 5745 5744 5743 5742 5742 5741 5741 5741 5741 5740 5740 5740
5787 5787 5786 5785 5784 5783 5782 5780 5779 5778 5776 5775 5773 5772 5770 5768 5766 5764 5762 5760 5759 5757 5755 5753 5751 5749 5748 5746 5744 5742 5741 5739 5738 5737 5737 5736 5735 5735 5734 5734 5734 5734 5733
5781 5781 5780 5779 5778 5777 5776 5774 5773 5772 5770 5768 5767 5765 5764 5762 5760 5758 5757 5755 5752 5750 5749 5747 5745 5743 5742 5740 5738 5736 5734 5733 5731 5730 5730 5729 5729 5728 5728 5728 5727 5727 5727
5775 5774 5774 5773 5772 5771 5770 5768 5767 5765 5764 5762 5760 5759 5757 5755 5754 5752 5750 5748 5746 5744 5742 5741 5738 5737 5735 5734 5732 5730 5728 5726 5725 5724 5723 5723 5722 5722 5722 5721 5720 5720 5721
5769 5768 5767 5767 5766 5764 5763 5762 5760 5759 5757 5755 5754 5752 5750 5749 5747 5745 5744 5742 5740 5738 5736 5734 5732 5730 5728 5727 5725 5724 5722 5720 5718 5717 5717 5717 5716 5716 5715 5715 5714 5714 5715
5762 5762 5761 5760 5759 5758 5757 5755 5754 5752 5751 5749 5747 5745 5744 5742 5740 5738 5736 5735 5733 5731 5729 5727 5725 5723 5721 5720 5718 5717 5715 5713 5712 5711 5710 5710 5710 5710 5709 5709 5708 5708 5709
5756 5755 5754 5754 5753 5751 5750 5748 5747 5745 5744 5742 5740 5738 5737 5735 5733 5731 5729 5728 5726 5724 5722 5720 5718 5716 5714 5713 5711 5710 5709 5707 5706 5705 5704 5704 5703 5703 5703 5703 5702 5702 5703
5749 5748 5748 5747 5746 5744 5743 5742 5740 5739 5737 5735 5733 5731 5730 5728 5726 5724 5722 5720 5718 5716 5714 5713 5711 5709 5707 5706 5705 5704 5702 5701 5700 5699 5698 5698 5697 5697 5696 5697 5697 5697 5697
5742 5742 5740 5740 5739 5738 5736 5735 5733 5731 5730 5728 5726 5724 5722 5720 5718 5716 5714 5713 5711 5709 5707 5706 5704 5702 5701 5699 5698 5697 5696 5695 5694 5693 5692 5691 5691 5690 5690 5690 5691 5691 5691
5735 5734 5733 5732 5731 5730 5728 5727 5725 5723 5722 5720 5718 5716 5714 5712 5710 5709 5707 5705 5704 5702 5700 5699 5697 5696 5694 5693 5691 5691 5689 5688 5688 5687 5686 5685 5684 5684 5683 5683 5683 5684 5684
5728 5727 5726 5724 5723 5722 5720 5719 5717 5715 5714 5712 5710 5708 5706 5705 5703 5701 5700 5698 5696 5695 5693 5692 5690 5689 5687 5686 5685 5684 5683 5682 5681 5680 5679 5678 5678 5677 5677 5676 5676 5676 5676
5721 5720 5718 5717 5715 5714 5712 5710 5709 5707 5706 5704 5702 5700 5699 5697 5695 5694 5692 5691 5689 5687 5686 5684 5683 5681 5680 5678 5677 5676 5675 5675 5674 5673 5672 5672 5671 5670 5670 5669 5669 5669 5668
5713 5712 5711 5709 5707 5706 5704 5702 5701 5699 5698 5696 5695 5693 5691 5689 5688 5686 5685 5683 5681 5679 5678 5677 5675 5673 5672 5671 5670 5668 5668 5667 5666 5666 5665 5664 5663 5663 5662 5662 5661 5661 5661
5705 5704 5703 5701 5700 5698 5696 5695 5693 5692 5690 5689 5687 5685 5683 5682 5680 5678 5676 5675 5673 5671 5670 5669 5667 5665 5664 5662 5661 5660 5659 5659 5658 5657 5656 5656 5655 5654 5654 5653 5653 5653 5653
5698 5697 5695 5694 5692 5690 5688 5687 5685 5683 5682 5680 5678 5677 5675 5673 5671 5670 5668 5666 5664 5663 5662 5660 5658 5657 5655 5654 5653 5652 5651 5650 5649 5648 5647 5647 5646 5646 5645 5645 5645 5644 5644
5690 5688 5686 5685 5684 5682 5680 5678 5677 5675 5673 5672 5670 5668 5667 5665 5663 5661 5659 5658 5656 5655 5653 5652 5650 5648 5647 5645 5644 5643 5642 5641 5640 5639 5639 5638 5637 5637 5636 5636 5636 5635 5635
5681 5680 5678 5677 5675 5674 5672 5670 5669 5667 5666 5664 5662 5660 5658 5656 5654 5653 5651 5649 5648 5646 5645 5643 5641 5640 5639 5637 5636 5635 5634 5633 5632 5631 5630 5629 5628 5628 5627 5627 5627 5626 5626
5673 5672 5670 5669 5667 5665 5664 5662 5660 5659 5658 5656 5654 5652 5650 5647 5645 5643 5642 5641 5639 5638 5636 5634 5633 5632 5630 5629 5628 5627 5626 5625 5624 5622 5621 5620 5619 5619 5618 5617 5617 5616 5616
5665 5663 5661 5660 5659 5657 5655 5654 5652 5651 5649 5647 5645 5643 5641 5639 5637 5635 5633 5632 5631 5629 5628 5626 5624 5623 5622 5621 5620 5619 5617 5616 5615 5614 5613 5611 5610 5609 5609 5608 5607 5607 5606
5656 5655 5653 5651 5650 5648 5646 5645 5643 5642 5640 5638 5636 5634 5632 5630 5629 5627 5625 5623 5622 5621 5619 5618 5616 5615 5614 5612 5611 5610 5609 5608 5606 5605 5604 5602 5601 5600 5599 5598 5597 5597 5596
5648 5646 5644 5642 5641 5639 5637 5636 5634 5633 5631 5629 5627 5625 5623 5621 5620 5618 5617 5615 5613 5612 5610 5609 5608 5606 5605 5603 5602 5601 5600 5598 5597 5596 5594 5593 5592 5591 5590 5589 5587 5586 5585
5639 5637 5636 5634 5632 5630 5628 5626 5624 5623 5621 5619 5618 5616 5614 5613 5611 5609 5608 5606 5604 5603 5601 5600 5598 5597 5595 5594 5593 5591 5590 5589 5587 5586 5585 5584 5582 5581 5580 5579 5577 5576 5575
5630 5628 5626 5624 5622 5620 5618 5616 5614 5612 5611 5609 5608 5606 5605 5603 5602 5600 5599 5597 5595 5594 5592 5590 5589 5587 5586 5585 5583 5582 5580 5579 5578 5576 5575 5574 5572 5571 5570 5568 5567 5566 5564
5621 5619 5617 5615 5613 5611 5608 5606 5604 5602 5601 5599 5598 5596 5595 5594 5592 5591 5589 5588 5586 5584 5582 5581 5579 5578 5576 5575 5574 5572 5571 5569 5568 5566 5565 5564 5562 5561 5559 5558 5557 5555 5554
5611 5609 5607 5605 5603 5601 5599 5596 5594 5592 5590 5589 5588 5587 5585 5584 5583 5581 5579 5578 5576 5574 5573 5571 5569 5568 5566 5565 5564 5562 5560 5559 5558 5556 5555 5553 5552 5551 5549 5548 5546 5545 5543